Time,TemperatureF,DewpointF,PressureIn,WindDirection,WindDirectionDegrees,WindSpeedMPH,WindSpeedGustMPH,Humidity,HourlyPrecipIn,Conditions,Clouds,dailyrainin,SoftwareType,DateUTC
2013-04-22 00:11:00,59.6,53.0,30.07,SE,137,7.0,8.0,78,0.00,,,0.00,weatherlink.com 1.10,2013-04-22 05:11:00,
2013-04-22 00:26:00,59.3,53.0,30.07,SE,136,5.0,7.0,79,0.00,,,0.00,weatherlink.com 1.10,2013-04-22 05:26:00,
2013-04-22 00:41:00,59.3,53.0,30.07,SE,126,2.0,7.0,79,0.00,,,0.00,weatherlink.com 1.10,2013-04-22 05:41:00,
2013-04-22 00:56:00,58.6,52.0,30.08,SE,143,3.0,4.0,80,0.00,,,0.00,weatherlink.com 1.10,2013-04-22 05:56:00,
2013-04-22 01:11:00,57.9,52.0,30.08,SE,137,3.0,4.0,82,0.00,,,0.00,weatherlink.com 1.10,2013-04-22 06:11:00,
2013-04-22 01:26:00,57.1,52.0,30.07,SE,137,2.0,4.0,84,0.00,,,0.00,weatherlink.com 1.10,2013-04-22 06:26:00,
2013-04-22 01:41:00,56.5,52.0,30.07,SE,135,4.0,5.0,86,0.00,,,0.00,weatherlink.com 1.10,2013-04-22 06:41:00,
2013-04-22 01:56:00,56.6,53.0,30.07,SE,133,3.0,5.0,86,0.00,,,0.00,weatherlink.com 1.10,2013-04-22 06:56:00,
2013-04-22 02:11:00,57.1,53.0,30.06,SSE,159,2.0,7.0,86,0.00,,,0.00,weatherlink.com 1.10,2013-04-22 07:11:00,
2013-04-22 02:26:00,57.0,53.0,30.06,SSE,158,1.0,6.0,87,0.00,,,0.00,weatherlink.com 1.10,2013-04-22 07:26:00,
2013-04-22 02:41:00,56.9,53.0,30.06,South,182,2.0,5.0,88,0.00,,,0.00,weatherlink.com 1.10,2013-04-22 07:41:00,
2013-04-22 02:56:00,56.3,53.0,30.06,South,182,2.0,2.0,89,0.00,,,0.00,weatherlink.com 1.10,2013-04-22 07:56:00,
2013-04-22 03:11:00,56.0,54.0,30.05,South,182,1.0,3.0,91,0.00,,,0.00,weatherlink.com 1.10,2013-04-22 08:11:00,
2013-04-22 03:26:00,55.8,53.0,30.04,South,188,2.0,4.0,91,0.00,,,0.00,weatherlink.com 1.10,2013-04-22 08:26:00,
2013-04-22 03:41:00,57.2,55.0,30.04,South,169,3.0,6.0,92,0.00,,,0.00,weatherlink.com 1.10,2013-04-22 08:41:00,
2013-04-22 03:56:00,57.6,55.0,30.05,South,183,3.0,6.0,91,0.00,,,0.00,weatherlink.com 1.10,2013-04-22 08:56:00,
2013-04-22 04:11:00,57.4,55.0,30.05,South,191,1.0,6.0,91,0.00,,,0.00,weatherlink.com 1.10,2013-04-22 09:11:00,
2013-04-22 04:26:00,57.2,55.0,30.05,South,185,2.0,7.0,91,0.00,,,0.00,weatherlink.com 1.10,2013-04-22 09:26:00,
2013-04-22 04:41:00,57.4,55.0,30.05,SSE,168,3.0,8.0,91,0.00,,,0.00,weatherlink.com 1.10,2013-04-22 09:41:00,
2013-04-22 04:56:00,57.3,55.0,30.05,SSW,197,5.0,8.0,90,0.00,,,0.00,weatherlink.com 1.10,2013-04-22 09:56:00,
2013-04-22 05:11:00,57.1,54.0,30.04,SSW,201,3.0,7.0,90,0.00,,,0.00,weatherlink.com 1.10,2013-04-22 10:11:00,
2013-04-22 05:26:00,56.6,54.0,30.04,SSW,197,3.0,7.0,90,0.00,,,0.00,weatherlink.com 1.10,2013-04-22 10:26:00,
2013-04-22 05:41:00,56.3,54.0,30.05,SW,218,2.0,7.0,90,0.00,,,0.00,weatherlink.com 1.10,2013-04-22 10:41:00,
2013-04-22 05:56:00,56.0,53.0,30.05,South,189,3.0,5.0,90,0.00,,,0.00,weatherlink.com 1.10,2013-04-22 10:56:00,
2013-04-22 06:11:00,55.8,53.0,30.05,SSW,195,4.0,8.0,90,0.00,,,0.00,weatherlink.com 1.10,2013-04-22 11:11:00,
2013-04-22 06:26:00,55.5,53.0,30.04,SSW,198,2.0,6.0,90,0.00,,,0.00,weatherlink.com 1.10,2013-04-22 11:26:00,
2013-04-22 06:41:00,54.4,52.0,30.05,SSW,196,1.0,3.0,90,0.00,,,0.00,weatherlink.com 1.10,2013-04-22 11:41:00,
2013-04-22 06:56:00,54.1,52.0,30.05,SSW,194,1.0,6.0,92,0.00,,,0.00,weatherlink.com 1.10,2013-04-22 11:56:00,
2013-04-22 07:11:00,53.8,52.0,30.05,SSW,195,2.0,4.0,92,0.00,,,0.00,weatherlink.com 1.10,2013-04-22 12:11:00,
2013-04-22 07:26:00,53.5,51.0,30.05,SSW,194,1.0,3.0,92,0.00,,,0.00,weatherlink.com 1.10,2013-04-22 12:26:00,
2013-04-22 07:41:00,54.1,52.0,30.05,SSW,195,1.0,1.0,93,0.00,,,0.00,weatherlink.com 1.10,2013-04-22 12:41:00,
2013-04-22 07:56:00,55.4,54.0,30.06,SSW,195,0.0,1.0,93,0.00,,,0.00,weatherlink.com 1.10,2013-04-22 12:56:00,
2013-04-22 08:11:00,57.5,54.0,30.06,SSW,194,0.0,3.0,89,0.00,,,0.00,weatherlink.com 1.10,2013-04-22 13:11:00,
2013-04-22 08:26:00,60.2,55.0,30.06,South,179,3.0,8.0,84,0.00,,,0.00,weatherlink.com 1.10,2013-04-22 13:26:00,
2013-04-22 08:41:00,62.2,55.0,30.06,SSW,195,5.0,12.0,77,0.00,,,0.00,weatherlink.com 1.10,2013-04-22 13:41:00,
2013-04-22 08:56:00,64.0,56.0,30.06,SW,219,4.0,10.0,74,0.00,,,0.00,weatherlink.com 1.10,2013-04-22 13:56:00,
2013-04-22 09:12:00,65.7,56.0,30.06,SSW,200,4.0,15.0,71,0.00,,,0.00,weatherlink.com 1.10,2013-04-22 14:12:00,
2013-04-22 09:27:00,67.1,57.0,30.06,SSE,168,6.0,13.0,70,0.00,,,0.00,weatherlink.com 1.10,2013-04-22 14:27:00,
2013-04-22 09:42:00,67.9,57.0,30.06,SSW,206,12.0,16.0,69,0.00,,,0.00,weatherlink.com 1.10,2013-04-22 14:42:00,
2013-04-22 09:57:00,69.0,58.0,30.06,SW,227,12.0,17.0,67,0.00,,,0.00,weatherlink.com 1.10,2013-04-22 14:57:00,
2013-04-22 10:12:00,70.2,59.0,30.05,SSW,201,4.0,15.0,67,0.00,,,0.00,weatherlink.com 1.10,2013-04-22 15:12:00,
2013-04-22 10:27:00,71.4,58.0,30.05,SSW,205,6.0,16.0,63,0.00,,,0.00,weatherlink.com 1.10,2013-04-22 15:27:00,
2013-04-22 10:42:00,72.0,58.0,30.05,SSW,198,6.0,16.0,62,0.00,,,0.00,weatherlink.com 1.10,2013-04-22 15:42:00,
2013-04-22 10:57:00,72.1,58.0,30.05,SW,224,7.0,20.0,62,0.00,,,0.00,weatherlink.com 1.10,2013-04-22 15:57:00,
2013-04-22 11:12:00,73.8,59.0,30.04,SSW,205,16.0,18.0,60,0.00,,,0.00,weatherlink.com 1.10,2013-04-22 16:12:00,
2013-04-22 11:27:00,74.2,59.0,30.04,South,184,7.0,16.0,59,0.00,,,0.00,weatherlink.com 1.10,2013-04-22 16:27:00,
2013-04-22 11:42:00,74.8,59.0,30.04,SSW,210,7.0,19.0,58,0.00,,,0.00,weatherlink.com 1.10,2013-04-22 16:42:00,
2013-04-22 11:57:00,75.5,59.0,30.03,SSW,193,15.0,15.0,57,0.00,,,0.00,weatherlink.com 1.10,2013-04-22 16:57:00,
2013-04-22 12:12:00,76.4,60.0,30.02,South,180,6.0,21.0,57,0.00,,,0.00,weatherlink.com 1.10,2013-04-22 17:12:00,
2013-04-22 12:27:00,77.1,60.0,30.01,South,177,15.0,16.0,55,0.00,,,0.00,weatherlink.com 1.10,2013-04-22 17:27:00,
2013-04-22 12:42:00,77.8,60.0,30.00,SSW,200,7.0,19.0,55,0.00,,,0.00,weatherlink.com 1.10,2013-04-22 17:42:00,
2013-04-22 12:57:00,78.2,59.0,29.98,South,190,5.0,19.0,51,0.00,,,0.00,weatherlink.com 1.10,2013-04-22 17:57:00,
2013-04-22 13:12:00,79.3,59.0,29.97,SSW,199,7.0,17.0,50,0.00,,,0.00,weatherlink.com 1.10,2013-04-22 18:12:00,
2013-04-22 13:27:00,79.9,59.0,29.96,SSW,195,15.0,18.0,49,0.00,,,0.00,weatherlink.com 1.10,2013-04-22 18:27:00,
2013-04-22 13:42:00,80.1,59.0,29.95,South,174,9.0,20.0,49,0.00,,,0.00,weatherlink.com 1.10,2013-04-22 18:42:00,
2013-04-22 13:57:00,81.7,59.0,29.94,South,170,8.0,18.0,47,0.00,,,0.00,weatherlink.com 1.10,2013-04-22 18:57:00,
2013-04-22 14:12:00,81.9,61.0,29.94,South,186,7.0,13.0,49,0.00,,,0.00,weatherlink.com 1.10,2013-04-22 19:12:00,
2013-04-22 14:28:00,82.2,60.0,29.93,SSW,200,9.0,20.0,47,0.00,,,0.00,weatherlink.com 1.10,2013-04-22 19:28:00,
2013-04-22 14:43:00,83.2,60.0,29.92,SSW,209,9.0,16.0,46,0.00,,,0.00,weatherlink.com 1.10,2013-04-22 19:43:00,
2013-04-22 14:58:00,83.2,60.0,29.91,South,189,9.0,17.0,45,0.00,,,0.00,weatherlink.com 1.10,2013-04-22 19:58:00,
2013-04-22 15:13:00,83.8,60.0,29.91,South,189,9.0,13.0,45,0.00,,,0.00,weatherlink.com 1.10,2013-04-22 20:13:00,
2013-04-22 15:28:00,84.8,59.0,29.90,South,175,10.0,16.0,42,0.00,,,0.00,weatherlink.com 1.10,2013-04-22 20:28:00,
2013-04-22 15:43:00,84.7,60.0,29.89,South,170,9.0,17.0,43,0.00,,,0.00,weatherlink.com 1.10,2013-04-22 20:43:00,
2013-04-22 15:58:00,84.8,59.0,29.88,SSE,155,3.0,16.0,42,0.00,,,0.00,weatherlink.com 1.10,2013-04-22 20:58:00,
2013-04-22 16:13:00,85.2,61.0,29.86,South,185,4.0,14.0,44,0.00,,,0.00,weatherlink.com 1.10,2013-04-22 21:13:00,
2013-04-22 16:28:00,84.8,62.0,29.86,South,183,6.0,17.0,46,0.00,,,0.00,weatherlink.com 1.10,2013-04-22 21:28:00,
2013-04-22 16:43:00,85.2,59.0,29.85,SSE,168,13.0,17.0,41,0.00,,,0.00,weatherlink.com 1.10,2013-04-22 21:43:00,
2013-04-22 16:58:00,84.9,58.0,29.84,SSE,156,4.0,22.0,40,0.00,,,0.00,weatherlink.com 1.10,2013-04-22 21:58:00,
2013-04-22 17:13:00,84.5,59.0,29.84,SSW,194,8.0,16.0,42,0.00,,,0.00,weatherlink.com 1.10,2013-04-22 22:13:00,
2013-04-22 17:28:00,84.1,59.0,29.83,SSW,199,11.0,18.0,42,0.00,,,0.00,weatherlink.com 1.10,2013-04-22 22:28:00,
2013-04-22 17:43:00,83.9,58.0,29.83,SSW,193,5.0,21.0,42,0.00,,,0.00,weatherlink.com 1.10,2013-04-22 22:43:00,
2013-04-22 17:58:00,83.6,59.0,29.82,South,174,5.0,15.0,44,0.00,,,0.00,weatherlink.com 1.10,2013-04-22 22:58:00,
2013-04-22 18:13:00,82.8,59.0,29.82,SSW,204,14.0,18.0,45,0.00,,,0.00,weatherlink.com 1.10,2013-04-22 23:13:00,
2013-04-22 18:28:00,82.5,58.0,29.82,SSE,167,15.0,17.0,44,0.00,,,0.00,weatherlink.com 1.10,2013-04-22 23:28:00,
2013-04-22 18:43:00,81.8,59.0,29.82,South,170,9.0,21.0,46,0.00,,,0.00,weatherlink.com 1.10,2013-04-22 23:43:00,
2013-04-22 18:58:00,81.2,59.0,29.82,SSW,195,8.0,15.0,47,0.00,,,0.00,weatherlink.com 1.10,2013-04-22 23:58:00,
2013-04-22 19:13:00,80.4,59.0,29.82,SSW,197,6.0,20.0,48,0.00,,,0.00,weatherlink.com 1.10,2013-04-23 00:13:00,
2013-04-22 19:28:00,79.6,59.0,29.82,SSE,163,4.0,16.0,50,0.00,,,0.00,weatherlink.com 1.10,2013-04-23 00:28:00,
2013-04-22 19:43:00,78.9,59.0,29.82,SSE,149,5.0,16.0,51,0.00,,,0.00,weatherlink.com 1.10,2013-04-23 00:43:00,
2013-04-22 19:58:00,78.1,59.0,29.82,South,171,8.0,9.0,52,0.00,,,0.00,weatherlink.com 1.10,2013-04-23 00:58:00,
2013-04-22 20:14:00,77.1,59.0,29.82,SSE,168,7.0,10.0,54,0.00,,,0.00,weatherlink.com 1.10,2013-04-23 01:14:00,
2013-04-22 20:28:00,76.0,60.0,29.82,SSE,163,3.0,8.0,57,0.00,,,0.00,weatherlink.com 1.10,2013-04-23 01:28:00,
2013-04-22 20:43:00,75.2,59.0,29.82,South,170,1.0,10.0,58,0.00,,,0.00,weatherlink.com 1.10,2013-04-23 01:43:00,
2013-04-22 20:58:00,74.3,59.0,29.83,South,170,3.0,7.0,60,0.00,,,0.00,weatherlink.com 1.10,2013-04-23 01:58:00,
2013-04-22 21:13:00,73.0,59.0,29.83,South,172,3.0,5.0,62,0.00,,,0.00,weatherlink.com 1.10,2013-04-23 02:13:00,
2013-04-22 21:28:00,70.5,59.0,29.84,South,170,2.0,3.0,67,0.00,,,0.00,weatherlink.com 1.10,2013-04-23 02:28:00,
2013-04-22 21:43:00,70.4,59.0,29.84,SSE,166,2.0,4.0,68,0.00,,,0.00,weatherlink.com 1.10,2013-04-23 02:43:00,
2013-04-22 21:58:00,70.4,59.0,29.84,SSE,161,2.0,5.0,68,0.00,,,0.00,weatherlink.com 1.10,2013-04-23 02:58:00,
2013-04-22 22:13:00,69.8,59.0,29.84,SSE,165,2.0,7.0,69,0.00,,,0.00,weatherlink.com 1.10,2013-04-23 03:13:00,
2013-04-22 22:28:00,69.4,59.0,29.83,South,174,3.0,7.0,70,0.00,,,0.00,weatherlink.com 1.10,2013-04-23 03:28:00,
2013-04-22 22:43:00,68.7,59.0,29.83,SSE,147,3.0,5.0,71,0.00,,,0.00,weatherlink.com 1.10,2013-04-23 03:43:00,
2013-04-22 22:58:00,68.3,59.0,29.84,SSE,156,2.0,5.0,71,0.00,,,0.00,weatherlink.com 1.10,2013-04-23 03:58:00,
2013-04-22 23:13:00,68.1,59.0,29.84,SSE,149,5.0,6.0,72,0.00,,,0.00,weatherlink.com 1.10,2013-04-23 04:13:00,
2013-04-22 23:28:00,68.1,59.0,29.83,South,181,2.0,7.0,72,0.00,,,0.00,weatherlink.com 1.10,2013-04-23 04:28:00,
2013-04-22 23:43:00,69.2,59.0,29.83,SE,131,5.0,14.0,71,0.00,,,0.00,weatherlink.com 1.10,2013-04-23 04:43:00,
2013-04-22 23:58:00,69.6,60.0,29.84,South,181,3.0,14.0,72,0.00,,,0.00,weatherlink.com 1.10,2013-04-23 04:58:00,